EHI
1 1 0 0 0 0 0 0 0 0 0 0 0 0 0 0 0 0 0 0 0 0 0 0 0 0 0 0 0 0 0 0 0 0 0 0 0 0 0 0 0 0 0 0
1 0 0 0 0 0 0 0 0 0 0 0 0 0 0 0 0 0 0 0 0 0 0 0 0 0 0 0 0 0 0 0 0 0 0 0 0 0 0 0 0 0 0 0
0 0 0 0 0 0 0 0 0 0 0 0 0 0 0 0 0 0 0 0 0 0 0 0 0 0 0 0 0 0 0 0 0 0 0 0 0 0 0 0 0 0 0 0
0 0 0 0 0 0 0 0 0 0 0 0 0 0 0 0 0 0 0 0 0 0 0 0 0 0 0 0 0 0 0 0 0 0 0 0 0 0 0 0 0 0 0 0
0 0 0 0 0 0 0 0 0 0 0 0 0 0 0 0 0 0 0 0 0 0 0 0 0 0 0 0 0 0 0 0 0 0 0 0 0 0 0 0 0 0 0 0
0 0 0 0 0 0 0 0 0 0 0 0 0 0 0 0 0 0 0 0 0 0 0 0 0 0 0 0 0 0 0 0 0 0 0 0 0 0 0 0 0 0 0 0
0 0 0 0 0 0 0 0 0 0 0 0 0 0 0 0 0 0 0 0 0 0 0 0 0 0 0 0 0 0 0 0 0 0 0 0 0 0 0 0 0 0 0 0
0 0 0 0 0 0 0 0 0 0 0 0 0 0 0 0 0 0 0 0 0 0 0 0 0 0 0 0 0 0 0 0 0 0 0 0 0 0 0 0 0 0 0 0
0 0 0 0 0 0 0 0 0 0 0 0 0 0 0 0 0 0 0 0 0 0 0 0 0 0 0 0 0 0 0 0 0 0 0 0 0 0 0 0 0 0 0 0
0 0 0 0 0 0 0 0 0 0 0 0 0 0 0 0 0 0 0 0 0 0 0 0 0 0 0 0 0 0 0 0 0 0 0 0 0 0 0 0 0 0 0 0
0 0 0 0 0 0 0 0 0 0 0 0 0 0 0 0 0 0 0 0 0 0 0 0 0 0 0 0 0 0 0 0 0 0 0 0 0 0 0 0 0 0 0 0
0 0 0 0 0 0 0 0 0 0 0 0 0 0 0 0 0 0 0 0 0 0 0 0 0 0 0 0 0 0 0 0 0 0 0 0 0 0 0 0 0 0 0 0
0 0 0 0 0 0 0 0 0 0 0 0 0 0 0 0 0 0 0 0 0 0 0 0 0 0 0 0 0 0 0 0 0 0 0 0 0 0 0 0 0 0 0 0
0 0 0 0 0 0 0 0 0 0 0 0 0 0 0 0 0 0 0 0 0 0 0 0 0 0 0 0 0 0 0 0 0 0 0 0 0 0 0 0 0 0 0 0
0 0 0 0 0 0 0 0 0 0 0 0 0 0 0 0 0 0 0 0 0 0 0 0 0 0 0 0 0 0 0 0 0 0 0 0 0 0 0 0 0 0 0 0
0 0 0 0 0 0 0 0 0 0 0 0 0 0 0 0 0 0 0 0 0 0 0 0 0 0 0 0 0 0 0 0 0 0 0 0 0 0 0 0 0 0 0 0
0 0 0 0 0 0 0 0 0 0 0 0 0 0 0 0 0 0 0 0 0 0 0 0 0 0 0 0 0 0 0 0 0 0 0 0 0 0 0 0 0 0 0 0
0 0 0 0 0 0 0 0 0 0 0 0 0 0 0 0 0 0 0 0 0 0 0 0 0 0 0 0 0 0 0 0 0 0 0 0 0 0 0 0 0 0 0 0
0 0 0 0 0 0 0 0 0 0 0 0 0 0 0 0 0 0 0 0 0 0 0 0 0 0 0 0 0 0 0 0 0 0 0 0 0 0 0 0 0 0 0 0
0 0 0 0 0 0 0 0 0 0 0 0 0 0 0 0 0 0 0 0 0 0 0 0 0 0 0 0 0 0 0 0 0 0 0 0 0 0 0 0 0 0 0 0
0 0 0 0 0 0 0 0 0 0 0 0 0 0 0 0 0 0 0 0 0 0 0 0 0 0 0 0 0 0 0 0 0 0 0 0 0 0 0 0 0 0 0 0
0 0 0 0 0 0 0 0 0 0 0 0 0 0 0 0 0 0 0 0 0 0 0 0 0 0 0 0 0 0 0 0 0 0 0 0 0 0 0 0 0 0 0 0
0 0 0 0 0 0 0 0 0 0 0 0 0 0 0 0 0 0 0 0 0 0 0 0 0 0 0 0 0 0 0 0 0 0 0 0 0 0 0 0 0 0 0 0
0 0 0 0 0 0 0 0 0 0 0 0 0 0 0 0 0 0 0 0 0 0 0 0 0 0 0 0 0 0 0 0 0 0 0 0 0 0 0 0 0 0 0 0
0 0 0 0 0 0 0 0 0 0 0 0 0 0 0 0 0 0 0 0 0 0 0 0 0 0 0 0 0 0 0 0 0 0 0 0 0 0 0 0 0 0 0 0
0 0 0 0 0 0 0 0 0 0 0 0 0 0 0 0 0 0 0 0 0 0 0 0 0 0 0 0 0 0 0 0 0 0 0 0 0 0 0 0 0 0 0 0
Wind_Speed
12 11 12 13 12 6 4 6 6 3 1 6 10 11 8 7 9 10 11 11 11 9 7 7 7 7 7 6 4 3 1 1 1 2 2 3 3 3 3 3 5 5 5 6
11 13 11 9 8 7 7 7 6 3 1 6 8 11 9 8 10 11 11 11 11 9 8 8 8 8 8 6 4 3 2 1 1 2 2 2 3 3 3 3 4 5 5 5
12 8 9 9 10 9 9 8 7 5 2 5 7 9 7 5 7 8 9 10 10 9 9 10 10 9 8 6 5 3 2 2 1 1 1 2 2 2 1 3 3 4 5 5
7 6 10 11 11 10 8 4 6 6 7 4 4 7 5 3 6 8 9 10 10 10 9 9 9 9 8 7 5 4 3 1 1 1 2 3 3 4 4 4 4 4 4 5
6 7 10 11 9 8 2 0 3 5 7 8 6 8 4 2 6 7 9 10 10 10 10 10 10 9 8 7 6 4 3 2 1 1 1 3 3 3 3 4 4 4 4 4
4 3 4 4 2 4 5 4 4 5 6 8 4 7 5 2 2 2 5 8 10 10 10 10 9 8 8 7 6 5 4 3 2 3 3 3 4 4 5 4 5 4 3 3
6 6 4 4 6 6 7 6 5 5 5 3 1 6 6 1 2 3 2 5 9 10 11 11 10 10 9 9 8 6 6 4 4 4 3 3 4 5 5 5 4 4 4 3
8 8 7 6 5 6 8 8 5 4 4 3 4 7 3 0 2 4 4 4 7 10 10 10 11 10 9 9 8 7 6 5 4 4 3 3 3 3 3 4 4 4 4 4
5 5 5 2 2 4 6 6 4 6 6 7 5 4 6 3 5 5 5 6 8 10 10 10 10 10 9 9 9 8 7 6 5 4 4 4 3 3 4 4 4 3 3 3
2 4 6 5 5 2 3 2 4 6 6 7 5 6 4 2 4 6 7 8 8 9 10 10 9 9 9 8 8 8 7 6 5 5 4 3 3 3 3 4 3 4 4 4
3 3 6 7 7 6 6 5 5 5 5 7 6 4 2 3 3 5 7 7 8 9 10 9 9 9 8 8 8 8 7 7 6 5 4 4 4 3 4 3 3 4 4 4
2 4 4 5 2 2 5 6 7 7 7 7 8 6 1 3 4 6 7 7 7 8 9 9 9 9 9 9 9 9 8 7 6 5 5 5 4 4 4 4 4 4 4 4
2 5 4 5 6 6 6 5 7 8 7 8 9 7 3 4 5 6 7 8 8 9 9 9 9 9 9 9 9 8 8 7 6 6 5 5 5 4 4 4 4 4 4 4
4 6 7 6 4 2 5 7 8 10 9 11 12 14 10 9 9 8 8 9 9 9 10 10 10 10 10 9 9 9 8 7 6 6 6 6 5 4 4 4 4 4 4 4
6 7 7 7 6 6 9 10 11 14 15 15 15 15 14 13 11 9 9 9 10 11 11 12 12 11 11 10 9 9 8 7 7 7 6 5 4 4 4 4 4 4 4 5
5 7 8 9 7 8 12 13 14 15 16 17 18 18 16 14 10 10 10 11 12 13 13 12 13 12 12 12 11 10 9 8 8 7 6 4 4 4 4 4 4 4 4 5
5 7 9 11 7 9 13 11 11 11 12 14 16 16 13 11 10 11 11 12 13 13 13 13 13 13 12 12 11 10 9 8 8 7 6 5 4 4 4 3 3 4 4 4
9 9 7 10 10 13 7 2 5 10 12 13 14 15 14 13 11 9 9 10 12 12 12 13 12 12 11 11 11 10 9 9 8 7 6 5 4 4 3 3 3 4 4 3
9 9 8 8 11 12 9 5 4 7 9 7 10 12 11 8 7 10 10 10 11 11 11 11 11 12 12 12 11 11 10 9 8 7 6 5 4 4 3 3 3 3 3 3
5 8 8 8 10 10 6 2 1 6 6 7 8 9 8 4 6 4 2 7 8 8 8 9 10 11 12 12 11 11 10 9 8 7 5 4 4 3 3 3 2 2 2 2
5 7 9 12 12 9 4 2 3 6 5 10 11 10 7 6 8 7 3 3 6 8 9 10 11 11 11 12 12 12 10 9 7 6 5 4 4 3 2 2 1 1 2 2
8 7 8 8 10 7 3 1 2 7 9 10 11 11 10 10 10 8 5 3 5 8 9 11 11 10 10 12 12 12 10 8 7 7 6 5 4 3 2 2 1 1 1 1
7 6 5 6 5 4 2 4 7 9 11 12 13 13 12 12 10 9 6 5 6 8 9 10 11 11 10 11 11 12 10 9 9 8 7 6 5 3 2 2 2 1 0 1
6 4 7 9 8 8 8 7 7 9 12 13 14 14 13 13 12 9 7 6 7 8 9 10 11 12 11 11 11 10 11 10 10 9 8 6 5 5 4 2 1 1 1 0
10 7 10 14 13 12 9 8 11 13 14 15 15 14 13 13 13 10 8 7 7 8 9 11 12 12 13 12 11 11 11 11 11 9 8 7 5 5 4 3 3 2 4 4
12 13 14 15 13 14 15 15 16 16 16 16 16 16 14 12 13 12 10 8 8 9 10 11 12 12 13 14 13 12 12 11 11 9 8 6 5 5 4 5 5 7 5 7
Wind_Direction
174 187 196 198 209 234 228 236 252 265 195 243 255 263 252 216 219 224 217 213 213 212 196 183 185 181 181 179 178 164 187 91 5 357 343 343 350 340 346 349 350 335 333 332
175 201 199 195 203 219 228 241 256 268 262 257 275 272 263 233 228 229 227 216 211 203 192 181 184 182 188 180 179 178 164 109 35 18 349 343 340 331 343 330 337 338 337 333
187 181 177 190 197 212 228 242 262 280 264 230 280 270 248 212 220 224 228 227 214 203 199 185 186 186 187 184 181 177 167 153 120 36 337 321 316 290 316 347 346 342 338 335
191 165 186 202 211 223 235 246 258 261 260 263 273 294 280 217 227 218 213 209 205 196 197 186 186 187 188 182 177 181 175 176 151 237 317 334 328 343 351 340 339 331 340 342
177 182 193 208 217 222 236 86 231 244 260 275 247 272 279 201 238 214 204 204 200 193 190 187 188 187 184 174 175 182 181 188 192 258 294 293 316 335 334 329 334 334 349 344
133 170 211 210 172 197 153 167 175 217 249 263 270 266 279 226 241 202 189 199 198 190 186 186 182 181 178 172 175 182 191 195 203 239 258 282 310 316 323 330 341 336 343 341
161 161 156 163 153 162 201 224 232 226 228 259 126 257 267 318 289 272 249 199 193 188 186 183 181 183 181 181 183 188 195 204 210 230 250 268 289 302 310 322 338 331 341 348
181 171 173 191 211 193 206 237 261 284 288 299 211 250 271 75 268 263 247 215 189 187 188 186 187 186 184 186 188 194 201 210 212 229 245 260 274 288 309 312 317 324 334 343
197 148 134 173 218 215 190 221 291 290 288 283 265 263 274 207 223 213 202 191 190 188 187 189 188 188 187 189 191 196 203 211 214 225 236 249 269 288 297 291 293 311 320 327
254 158 147 150 165 76 303 181 200 250 281 282 280 273 278 239 217 201 200 198 191 186 188 190 189 190 190 190 190 194 206 214 213 221 231 243 264 276 283 285 296 306 311 321
260 196 156 182 214 203 179 199 229 250 273 283 290 293 7 293 281 233 214 205 196 192 192 191 189 189 188 188 189 193 202 210 212 219 225 232 244 259 264 265 276 280 288 295
254 267 194 183 123 318 248 242 230 252 252 252 278 286 108 256 269 252 233 212 204 200 195 191 188 184 186 190 193 197 201 205 208 216 223 232 245 247 255 256 260 267 274 283
200 250 227 186 181 188 218 224 236 256 266 254 257 271 147 234 249 236 231 220 205 198 194 190 187 189 188 190 195 199 202 205 203 208 221 230 234 242 252 260 262 267 269 273
254 257 271 280 310 270 231 218 219 230 251 257 254 271 275 265 257 243 226 219 209 201 196 194 192 193 191 192 195 199 200 200 200 203 218 231 240 242 251 257 266 267 272 274
254 270 272 280 284 268 266 257 232 235 254 267 275 276 278 278 272 259 239 221 210 206 202 199 197 195 192 193 196 197 198 196 197 203 215 227 232 234 245 253 255 262 268 272
257 271 274 269 265 264 264 262 253 247 255 262 269 273 276 279 272 254 238 222 215 211 207 202 199 196 195 194 194 191 193 194 196 204 212 212 227 230 241 253 260 267 269 274
248 262 274 278 280 273 266 264 256 248 242 252 264 273 284 277 260 250 242 226 221 216 207 201 198 196 196 194 190 188 191 187 193 199 202 205 215 223 238 247 256 262 265 271
254 254 263 277 276 267 289 319 273 266 268 263 265 276 282 281 279 268 250 232 223 216 207 200 196 192 192 188 185 183 181 185 191 196 198 199 211 221 231 245 259 267 275 276
242 245 252 263 270 273 282 276 244 257 278 295 280 283 295 300 280 252 232 226 224 212 203 195 191 185 184 181 179 179 181 185 190 194 198 193 201 210 222 234 249 264 276 279
212 231 246 247 261 270 289 29 257 261 264 14 345 327 320 290 262 273 230 212 215 203 190 181 179 180 178 175 176 182 184 185 187 187 189 184 188 202 218 235 255 256 254 266
205 211 233 248 257 266 319 25 206 251 349 1 347 339 326 284 289 330 321 226 201 185 176 172 173 177 177 171 175 185 185 186 178 171 169 169 173 187 201 220 234 246 251 258
265 250 241 246 252 262 73 131 284 340 346 340 339 337 323 303 305 308 289 242 194 178 173 174 174 173 171 172 179 184 182 170 158 157 161 164 166 168 169 178 212 249 252 238
254 274 284 260 283 15 6 316 333 332 323 329 330 328 320 307 300 298 282 249 213 191 178 178 176 169 169 176 183 182 168 159 158 159 160 161 157 151 157 164 169 180 218 269
264 276 268 268 270 297 306 307 319 324 319 318 317 316 311 302 298 290 277 247 221 202 186 179 176 175 175 175 180 176 159 162 163 163 162 163 162 154 143 128 124 98 46 26
281 276 273 276 286 296 292 314 324 323 319 318 319 314 307 298 290 284 270 248 224 208 193 187 187 184 177 172 171 166 163 167 169 166 164 164 157 151 140 120 71 61 56 31
263 266 270 277 295 298 300 312 320 317 315 316 315 312 307 296 287 281 269 252 228 211 199 195 192 187 179 173 170 167 168 172 172 170 167 163 159 156 152 141 119 68 72 73